| time (UTC) | temp F | wind direction | speed MPH | gust MPH | rain 1hr in | rain 24hr in | rain mn in | humidity % | barometer mb |
| 20260906194604 | 102 | 0 | 0.0 | 9.0 | 0.00 | 0.00 | 0.00 | 35 | 1016.7 |
| 20260906194034 | 102 | 165 | 4.0 | 10.0 | 0.00 | 0.00 | 0.00 | 36 | 1016.8 |
| 20260906193534 | 102 | 0 | 2.0 | 13.0 | 0.00 | 0.00 | 0.00 | 35 | 1016.8 |
| 20260906193051 | 102 | 163 | 5.0 | 13.0 | 0.00 | 0.00 | 0.00 | 37 | 1016.9 |
| 20260906192534 | 101 | 146 | 2.0 | 11.0 | 0.00 | 0.00 | 0.00 | 39 | 1017.1 |
| 20260906192036 | 101 | 178 | 3.0 | 11.0 | 0.00 | 0.00 | 0.00 | 38 | 1017.0 |
| 20260906191550 | 100 | 360 | 5.0 | 10.0 | 0.00 | 0.00 | 0.00 | 38 | 1017.1 |
| 20260906191036 | 101 | 289 | 3.0 | 9.0 | 0.00 | 0.00 | 0.00 | 38 | 1017.1 |
| 20260906190536 | 101 | 167 | 2.0 | 9.0 | 0.00 | 0.00 | 0.00 | 38 | 1017.1 |
| 20260906190048 | 101 | 152 | 3.0 | 9.0 | 0.00 | 0.00 | 0.00 | 40 | 1017.2 |
| 20260906185534 | 101 | 0 | 3.0 | 9.0 | 0.00 | 0.00 | 0.00 | 41 | 1017.3 |
| 20260906185036 | 101 | 161 | 3.0 | 11.0 | 0.00 | 0.00 | 0.00 | 39 | 1017.3 |
| 20260906184555 | 101 | 0 | 4.0 | 11.0 | 0.00 | 0.00 | 0.00 | 39 | 1017.4 |
| 20260906184034 | 100 | 172 | 4.0 | 11.0 | 0.00 | 0.00 | 0.00 | 40 | 1017.4 |
| 20260906183534 | 99 | 92 | 1.0 | 6.0 | 0.00 | 0.00 | 0.00 | 42 | 1017.5 |
| 20260906183103 | 99 | 0 | 2.0 | 9.0 | 0.00 | 0.00 | 0.00 | 43 | 1017.6 |
| 20260906182538 | 100 | 287 | 2.0 | 11.0 | 0.00 | 0.00 | 0.00 | 41 | 1017.5 |
| 20260906182034 | 100 | 173 | 5.0 | 11.0 | 0.00 | 0.00 | 0.00 | 42 | 1017.7 |
| 20260906181556 | 100 | 72 | 1.0 | 7.0 | 0.00 | 0.00 | 0.00 | 41 | 1017.7 |
| 20260906181035 | 100 | 145 | 2.0 | 7.0 | 0.00 | 0.00 | 0.00 | 42 | 1017.7 |
| 20260906180535 | 99 | 188 | 3.0 | 7.0 | 0.00 | 0.00 | 0.00 | 42 | 1018.0 |
| 20260906180104 | 99 | 128 | 0.0 | 7.0 | 0.00 | 0.00 | 0.00 | 44 | 1018.2 |
| 20260906175535 | 99 | 171 | 1.0 | 11.0 | 0.00 | 0.00 | 0.00 | 44 | 1018.2 |
| 20260906175038 | 98 | 87 | 3.0 | 11.0 | 0.00 | 0.00 | 0.00 | 47 | 1018.4 |
| 20260906174613 | 97 | 163 | 0.0 | 9.0 | 0.00 | 0.00 | 0.00 | 46 | 1018.4 |
| 20260906174035 | 97 | 180 | 2.0 | 9.0 | 0.00 | 0.00 | 0.00 | 48 | 1018.6 |
| 20260906173534 | 96 | 145 | 0.0 | 6.0 | 0.00 | 0.00 | 0.00 | 49 | 1018.6 |
| 20260906173053 | 96 | 0 | 1.0 | 9.0 | 0.00 | 0.00 | 0.00 | 47 | 1018.7 |
| 20260906172536 | 97 | 65 | 3.0 | 9.0 | 0.00 | 0.00 | 0.00 | 51 | 1018.9 |
| 20260906172034 | 96 | 142 | 1.0 | 5.0 | 0.00 | 0.00 | 0.00 | 51 | 1019.0 |
| 20260906171607 | 96 | 154 | 1.0 | 8.0 | 0.00 | 0.00 | 0.00 | 50 | 1019.1 |
| 20260906171034 | 96 | 96 | 2.0 | 8.0 | 0.00 | 0.00 | 0.00 | 50 | 1019.2 |
| 20260906170535 | 95 | 0 | 0.0 | 6.0 | 0.00 | 0.00 | 0.00 | 52 | 1019.2 |
| 20260906165535 | 94 | 0 | 0.0 | 7.0 | 0.00 | 0.00 | 0.00 | 53 | 1019.3 |
| 20260906165035 | 94 | 206 | 3.0 | 9.0 | 0.00 | 0.00 | 0.00 | 53 | 1019.2 |
| 20260906164553 | 94 | 186 | 3.0 | 9.0 | 0.00 | 0.00 | 0.00 | 53 | 1019.2 |
| 20260906164035 | 94 | 0 | 0.0 | 8.0 | 0.00 | 0.00 | 0.00 | 55 | 1019.3 |
| 20260906163534 | 93 | 0 | 1.0 | 8.0 | 0.00 | 0.00 | 0.00 | 55 | 1019.3 |
| 20260906163055 | 93 | 159 | 1.0 | 10.0 | 0.00 | 0.00 | 0.00 | 55 | 1019.3 |
| 20260906162535 | 93 | 162 | 4.0 | 10.0 | 0.00 | 0.00 | 0.00 | 54 | 1019.4 |
| 20260906162034 | 93 | 171 | 2.0 | 7.0 | 0.00 | 0.00 | 0.00 | 56 | 1019.4 |
| 20260906161613 | 93 | 0 | 0.0 | 7.0 | 0.00 | 0.00 | 0.00 | 55 | 1019.2 |
| 20260906161035 | 93 | 0 | 1.0 | 6.0 | 0.00 | 0.00 | 0.00 | 57 | 1019.3 |
| 20260906160534 | 92 | 360 | 1.0 | 6.0 | 0.00 | 0.00 | 0.00 | 58 | 1019.2 |
| 20260906160058 | 92 | 138 | 1.0 | 6.0 | 0.00 | 0.00 | 0.00 | 57 | 1019.2 |
| 20260906155535 | 92 | 185 | 2.0 | 8.0 | 0.00 | 0.00 | 0.00 | 58 | 1019.1 |
| 20260906155036 | 91 | 169 | 2.0 | 8.0 | 0.00 | 0.00 | 0.00 | 58 | 1019.1 |
| 20260906154548 | 91 | 157 | 2.0 | 8.0 | 0.00 | 0.00 | 0.00 | 59 | 1019.2 |
| 20260906154035 | 91 | 0 | 2.0 | 8.0 | 0.00 | 0.00 | 0.00 | 61 | 1019.1 |
| 20260906153537 | 90 | 184 | 2.0 | 8.0 | 0.00 | 0.00 | 0.00 | 62 | 1019.1 |
| 20260906153110 | 91 | 304 | 1.0 | 10.0 | 0.00 | 0.00 | 0.00 | 61 | 1019.0 |
| 20260906152535 | 91 | 229 | 3.0 | 10.0 | 0.00 | 0.00 | 0.00 | 62 | 1018.9 |
| 20260906152036 | 90 | 196 | 2.0 | 7.0 | 0.00 | 0.00 | 0.00 | 63 | 1018.8 |
| 20260906151549 | 90 | 148 | 0.0 | 9.0 | 0.00 | 0.00 | 0.00 | 65 | 1018.9 |
| 20260906151038 | 89 | 163 | 1.0 | 9.0 | 0.00 | 0.00 | 0.00 | 65 | 1018.9 |
| 20260906150535 | 88 | 142 | 2.0 | 6.0 | 0.00 | 0.00 | 0.00 | 66 | 1018.8 |
| 20260906150048 | 87 | 0 | 1.0 | 6.0 | 0.00 | 0.00 | 0.00 | 68 | 1018.9 |
| 20260906145537 | 87 | 150 | 0.0 | 5.0 | 0.00 | 0.00 | 0.00 | 68 | 1018.9 |
| 20260906145035 | 87 | 0 | 0.0 | 5.0 | 0.00 | 0.00 | 0.00 | 67 | 1018.9 |
| 20260906144555 | 88 | 0 | 0.0 | 7.0 | 0.00 | 0.00 | 0.00 | 68 | 1018.8 |
| 20260906144034 | 87 | 0 | 0.0 | 8.0 | 0.00 | 0.00 | 0.00 | 69 | 1018.7 |
| 20260906143535 | 87 | 0 | 3.0 | 8.0 | 0.00 | 0.00 | 0.00 | 68 | 1018.8 |
| 20260906143050 | 86 | 261 | 0.0 | 5.0 | 0.00 | 0.00 | 0.00 | 69 | 1018.8 |
| 20260906142534 | 86 | 213 | 0.0 | 5.0 | 0.00 | 0.00 | 0.00 | 71 | 1018.7 |
| 20260906142035 | 86 | 169 | 0.0 | 4.0 | 0.00 | 0.00 | 0.00 | 72 | 1018.6 |
| 20260906141609 | 85 | 0 | 0.0 | 2.0 | 0.00 | 0.00 | 0.00 | 74 | 1018.5 |
| 20260906141035 | 85 | 0 | 0.0 | 5.0 | 0.00 | 0.00 | 0.00 | 76 | 1018.5 |
| 20260906140534 | 85 | 0 | 0.0 | 5.0 | 0.00 | 0.00 | 0.00 | 76 | 1018.4 |
| 20260906140050 | 84 | 153 | 1.0 | 5.0 | 0.00 | 0.00 | 0.00 | 77 | 1018.5 |
| 20260906135534 | 84 | 0 | 0.0 | 5.0 | 0.00 | 0.00 | 0.00 | 80 | 1018.3 |
| 20260906135034 | 83 | 150 | 0.0 | 3.0 | 0.00 | 0.00 | 0.00 | 81 | 1018.3 |
| 20260906134555 | 82 | 0 | 1.0 | 4.0 | 0.00 | 0.00 | 0.00 | 83 | 1018.3 |
| 20260906134035 | 82 | 0 | 1.0 | 4.0 | 0.00 | 0.00 | 0.00 | 84 | 1018.2 |
| 20260906133535 | 81 | 0 | 0.0 | 4.0 | 0.00 | 0.00 | 0.00 | 86 | 1018.1 |
| 20260906133102 | 81 | 0 | 0.0 | 2.0 | 0.00 | 0.00 | 0.00 | 87 | 1018.0 |
| 20260906132535 | 80 | 0 | 0.0 | 3.0 | 0.00 | 0.00 | 0.00 | 88 | 1018.1 |
| 20260906132034 | 79 | 0 | 0.0 | 3.0 | 0.00 | 0.00 | 0.00 | 89 | 1017.9 |
| 20260906131601 | 79 | 97 | 0.0 | 1.0 | 0.00 | 0.00 | 0.00 | 90 | 1018.0 |
| 20260906131034 | 79 | 0 | 0.0 | 2.0 | 0.00 | 0.00 | 0.00 | 90 | 1018.0 |
| 20260906130534 | 78 | 0 | 0.0 | 2.0 | 0.00 | 0.00 | 0.00 | 90 | 1017.9 |
| 20260906130057 | 78 | 0 | 0.0 | 0.0 | 0.00 | 0.00 | 0.00 | 91 | 1017.9 |
| 20260906125534 | 78 | 0 | 0.0 | 0.0 | 0.00 | 0.00 | 0.00 | 91 | 1017.8 |
| 20260906125038 | 78 | 0 | 0.0 | 0.0 | 0.00 | 0.00 | 0.00 | 90 | 1017.8 |
| 20260906124544 | 78 | 0 | 0.0 | 0.0 | 0.00 | 0.00 | 0.00 | 90 | 1017.7 |
| 20260906124035 | 78 | 0 | 0.0 | 0.0 | 0.00 | 0.00 | 0.00 | 90 | 1017.6 |
| 20260906123535 | 78 | 0 | 0.0 | 0.0 | 0.00 | 0.00 | 0.00 | 90 | 1017.6 |
| 20260906123102 | 78 | 0 | 0.0 | 0.0 | 0.00 | 0.00 | 0.00 | 90 | 1017.5 |
| 20260906122535 | 78 | 0 | 0.0 | 0.0 | 0.00 | 0.00 | 0.00 | 90 | 1017.4 |
| 20260906122035 | 78 | 0 | 0.0 | 0.0 | 0.00 | 0.00 | 0.00 | 90 | 1017.4 |
| 20260906121552 | 78 | 0 | 0.0 | 0.0 | 0.00 | 0.00 | 0.00 | 90 | 1017.4 |
| 20260906121034 | 78 | 0 | 0.0 | 0.0 | 0.00 | 0.00 | 0.00 | 90 | 1017.3 |
| 20260906120538 | 78 | 0 | 0.0 | 0.0 | 0.00 | 0.00 | 0.00 | 90 | 1017.2 |
| 20260906120101 | 78 | 0 | 0.0 | 0.0 | 0.00 | 0.00 | 0.00 | 90 | 1017.2 |
| 20260906115535 | 78 | 0 | 0.0 | 0.0 | 0.00 | 0.00 | 0.00 | 90 | 1017.1 |
| 20260906115033 | 78 | 0 | 0.0 | 1.0 | 0.00 | 0.00 | 0.00 | 90 | 1016.9 |
| 20260906114549 | 78 | 0 | 0.0 | 1.0 | 0.00 | 0.00 | 0.00 | 90 | 1017.0 |
| 20260906114036 | 78 | 97 | 0.0 | 0.0 | 0.00 | 0.00 | 0.00 | 90 | 1016.8 |
| 20260906113534 | 78 | 0 | 0.0 | 0.0 | 0.00 | 0.00 | 0.00 | 90 | 1016.8 |
| 20260906113053 | 78 | 0 | 0.0 | 2.0 | 0.00 | 0.00 | 0.00 | 90 | 1016.8 |
| 20260906112535 | 79 | 0 | 0.0 | 2.0 | 0.00 | 0.00 | 0.00 | 89 | 1017.0 |
| 20260906112035 | 79 | 0 | 0.0 | 2.0 | 0.00 | 0.00 | 0.00 | 89 | 1016.8 |
| 20260906111551 | 79 | 0 | 0.0 | 2.0 | 0.00 | 0.00 | 0.00 | 89 | 1016.8 |
| 20260906111035 | 79 | 0 | 0.0 | 2.0 | 0.00 | 0.00 | 0.00 | 89 | 1016.7 |
| 20260906110534 | 79 | 0 | 0.0 | 3.0 | 0.00 | 0.00 | 0.00 | 89 | 1016.7 |
| 20260906110050 | 79 | 0 | 0.0 | 3.0 | 0.00 | 0.00 | 0.00 | 89 | 1016.7 |
| 20260906105535 | 79 | 0 | 0.0 | 3.0 | 0.00 | 0.00 | 0.00 | 89 | 1016.7 |
| 20260906105033 | 79 | 0 | 0.0 | 3.0 | 0.00 | 0.00 | 0.00 | 89 | 1016.7 |
| 20260906104546 | 79 | 0 | 0.0 | 3.0 | 0.00 | 0.00 | 0.00 | 89 | 1016.7 |
| 20260906104036 | 79 | 0 | 0.0 | 5.0 | 0.00 | 0.00 | 0.00 | 89 | 1016.5 |
| 20260906103537 | 79 | 0 | 0.0 | 5.0 | 0.00 | 0.00 | 0.00 | 89 | 1016.6 |
| 20260906103054 | 79 | 142 | 0.0 | 3.0 | 0.00 | 0.00 | 0.00 | 89 | 1016.8 |
| 20260906102535 | 79 | 0 | 0.0 | 3.0 | 0.00 | 0.00 | 0.00 | 89 | 1016.7 |
| 20260906102035 | 79 | 0 | 0.0 | 6.0 | 0.00 | 0.00 | 0.00 | 88 | 1016.7 |
| 20260906101555 | 79 | 0 | 0.0 | 6.0 | 0.00 | 0.00 | 0.00 | 89 | 1016.7 |
| 20260906101034 | 79 | 149 | 2.0 | 5.0 | 0.00 | 0.00 | 0.00 | 89 | 1016.6 |
| 20260906100534 | 79 | 0 | 0.0 | 2.0 | 0.00 | 0.00 | 0.00 | 89 | 1016.5 |
| 20260906100050 | 79 | 0 | 0.0 | 2.0 | 0.00 | 0.00 | 0.00 | 88 | 1016.4 |
| 20260906095534 | 79 | 0 | 0.0 | 0.0 | 0.00 | 0.00 | 0.00 | 88 | 1016.3 |
| 20260906095034 | 79 | 0 | 0.0 | 0.0 | 0.00 | 0.00 | 0.00 | 88 | 1016.2 |
| 20260906094556 | 79 | 0 | 0.0 | 0.0 | 0.00 | 0.00 | 0.00 | 88 | 1016.1 |
| 20260906094035 | 79 | 0 | 0.0 | 0.0 | 0.00 | 0.00 | 0.00 | 88 | 1016.1 |
| 20260906093535 | 79 | 0 | 0.0 | 0.0 | 0.00 | 0.00 | 0.00 | 88 | 1016.0 |
| 20260906093049 | 79 | 0 | 0.0 | 0.0 | 0.00 | 0.00 | 0.00 | 88 | 1016.0 |
| 20260906092535 | 79 | 0 | 0.0 | 0.0 | 0.00 | 0.00 | 0.00 | 87 | 1015.9 |
| 20260906092035 | 79 | 0 | 0.0 | 0.0 | 0.00 | 0.00 | 0.00 | 87 | 1015.9 |
| 20260906091552 | 79 | 0 | 0.0 | 0.0 | 0.00 | 0.00 | 0.00 | 87 | 1015.9 |
| 20260906091035 | 79 | 0 | 0.0 | 0.0 | 0.00 | 0.00 | 0.00 | 87 | 1015.9 |
| 20260906090535 | 79 | 0 | 0.0 | 0.0 | 0.00 | 0.00 | 0.00 | 87 | 1016.0 |
| 20260906090054 | 79 | 0 | 0.0 | 0.0 | 0.00 | 0.00 | 0.00 | 87 | 1015.8 |
| 20260906085538 | 79 | 0 | 0.0 | 0.0 | 0.00 | 0.00 | 0.00 | 87 | 1015.9 |
| 20260906085034 | 79 | 0 | 0.0 | 0.0 | 0.00 | 0.00 | 0.00 | 87 | 1016.0 |
| 20260906084546 | 79 | 0 | 0.0 | 0.0 | 0.00 | 0.00 | 0.00 | 86 | 1016.1 |
| 20260906084036 | 79 | 0 | 0.0 | 0.0 | 0.00 | 0.00 | 0.00 | 86 | 1016.0 |
| 20260906083539 | 79 | 0 | 0.0 | 0.0 | 0.00 | 0.00 | 0.00 | 86 | 1015.9 |
| 20260906083102 | 79 | 0 | 0.0 | 0.0 | 0.00 | 0.00 | 0.00 | 85 | 1016.0 |
| 20260906082538 | 80 | 0 | 0.0 | 0.0 | 0.00 | 0.00 | 0.00 | 85 | 1016.2 |
| 20260906082034 | 80 | 0 | 0.0 | 0.0 | 0.00 | 0.00 | 0.00 | 85 | 1016.1 |
| 20260906081555 | 80 | 0 | 0.0 | 0.0 | 0.00 | 0.00 | 0.00 | 85 | 1016.2 |
| 20260906081035 | 80 | 0 | 0.0 | 0.0 | 0.00 | 0.00 | 0.00 | 85 | 1016.3 |
| 20260906080535 | 80 | 0 | 0.0 | 0.0 | 0.00 | 0.00 | 0.00 | 85 | 1016.4 |
| 20260906080052 | 80 | 0 | 0.0 | 0.0 | 0.00 | 0.00 | 0.00 | 85 | 1016.5 |
| 20260906075534 | 80 | 0 | 0.0 | 0.0 | 0.00 | 0.00 | 0.00 | 84 | 1016.6 |
| 20260906075034 | 80 | 0 | 0.0 | 0.0 | 0.00 | 0.00 | 0.00 | 84 | 1016.6 |
| 20260906074550 | 80 | 0 | 0.0 | 0.0 | 0.00 | 0.00 | 0.00 | 84 | 1016.7 |
| 20260906074034 | 81 | 0 | 0.0 | 0.0 | 0.00 | 0.00 | 0.00 | 84 | 1016.8 |
| 20260906073536 | 81 | 0 | 0.0 | 3.0 | 0.00 | 0.00 | 0.00 | 83 | 1016.8 |
| 20260906073054 | 81 | 0 | 0.0 | 3.0 | 0.00 | 0.00 | 0.00 | 83 | 1016.8 |
| 20260906072535 | 81 | 0 | 0.0 | 3.0 | 0.00 | 0.00 | 0.00 | 83 | 1016.8 |
| 20260906072037 | 81 | 0 | 0.0 | 3.0 | 0.00 | 0.00 | 0.00 | 83 | 1016.8 |
| 20260906071554 | 81 | 0 | 0.0 | 4.0 | 0.00 | 0.00 | 0.00 | 83 | 1016.9 |
| 20260906071035 | 81 | 0 | 0.0 | 4.0 | 0.00 | 0.00 | 0.00 | 83 | 1017.0 |
| 20260906070535 | 81 | 0 | 1.0 | 6.0 | 0.00 | 0.00 | 0.00 | 83 | 1017.2 |
| 20260906070052 | 81 | 0 | 2.0 | 6.0 | 0.00 | 0.00 | 0.00 | 82 | 1017.2 |
| 20260906065534 | 81 | 360 | 1.0 | 8.0 | 0.00 | 0.00 | 0.00 | 82 | 1017.2 |
| 20260906065035 | 82 | 183 | 3.0 | 9.0 | 0.00 | 0.00 | 0.00 | 82 | 1017.2 |
| 20260906064549 | 82 | 167 | 2.0 | 9.0 | 0.00 | 0.00 | 0.00 | 82 | 1017.3 |
| 20260906064034 | 82 | 144 | 4.0 | 8.0 | 0.00 | 0.00 | 0.00 | 82 | 1017.4 |
| 20260906063534 | 82 | 202 | 3.0 | 7.0 | 0.00 | 0.00 | 0.00 | 82 | 1017.5 |
| 20260906063056 | 82 | 168 | 2.0 | 8.0 | 0.00 | 0.00 | 0.00 | 81 | 1017.5 |
| 20260906062535 | 82 | 165 | 3.0 | 8.0 | 0.00 | 0.00 | 0.00 | 81 | 1017.5 |
| 20260906062035 | 82 | 143 | 2.0 | 8.0 | 0.00 | 0.00 | 0.00 | 81 | 1017.5 |
| 20260906061556 | 82 | 159 | 3.0 | 9.0 | 0.00 | 0.00 | 0.00 | 80 | 1017.6 |
| 20260906061035 | 82 | 170 | 2.0 | 10.0 | 0.00 | 0.00 | 0.00 | 80 | 1017.6 |
| 20260906060536 | 82 | 168 | 2.0 | 10.0 | 0.00 | 0.00 | 0.00 | 79 | 1017.6 |
| 20260906060121 | 82 | 157 | 2.0 | 8.0 | 0.00 | 0.00 | 0.00 | 78 | 1017.7 |
| 20260906055536 | 82 | 178 | 3.0 | 8.0 | 0.00 | 0.00 | 0.00 | 78 | 1017.8 |
| 20260906055034 | 82 | 161 | 4.0 | 8.0 | 0.00 | 0.00 | 0.00 | 78 | 1017.8 |
| 20260906054601 | 82 | 119 | 4.0 | 8.0 | 0.00 | 0.00 | 0.00 | 78 | 1017.7 |
| 20260906054035 | 83 | 161 | 1.0 | 10.0 | 0.00 | 0.00 | 0.00 | 77 | 1017.8 |
| 20260906053535 | 83 | 360 | 3.0 | 10.0 | 0.00 | 0.00 | 0.00 | 77 | 1017.7 |
| 20260906053055 | 83 | 360 | 2.0 | 10.0 | 0.00 | 0.00 | 0.00 | 77 | 1017.7 |
| 20260906052535 | 83 | 139 | 5.0 | 10.0 | 0.00 | 0.00 | 0.00 | 76 | 1017.6 |
| 20260906052035 | 83 | 137 | 5.0 | 10.0 | 0.00 | 0.00 | 0.00 | 76 | 1017.7 |
| 20260906051553 | 83 | 167 | 4.0 | 9.0 | 0.00 | 0.00 | 0.00 | 76 | 1017.7 |
| 20260906051035 | 83 | 147 | 3.0 | 9.0 | 0.00 | 0.00 | 0.00 | 75 | 1017.7 |
| 20260906050534 | 83 | 143 | 3.0 | 12.0 | 0.00 | 0.00 | 0.00 | 75 | 1017.8 |
| 20260906050051 | 84 | 181 | 4.0 | 12.0 | 0.00 | 0.00 | 0.00 | 75 | 1017.8 |
| 20260906045535 | 84 | 148 | 4.0 | 12.0 | 0.00 | 0.00 | 0.00 | 74 | 1017.8 |
| 20260906045034 | 84 | 360 | 5.0 | 10.0 | 0.00 | 0.00 | 0.00 | 74 | 1017.8 |
| 20260906044547 | 84 | 149 | 5.0 | 11.0 | 0.00 | 0.00 | 0.00 | 73 | 1017.9 |
| 20260906044034 | 84 | 191 | 5.0 | 11.0 | 0.00 | 0.00 | 0.00 | 73 | 1017.8 |
| 20260906043534 | 84 | 199 | 5.0 | 11.0 | 0.00 | 0.00 | 0.00 | 72 | 1017.8 |
| 20260906043054 | 84 | 155 | 3.0 | 14.0 | 0.00 | 0.00 | 0.00 | 72 | 1017.7 |
| 20260906042534 | 84 | 153 | 5.0 | 14.0 | 0.00 | 0.00 | 0.00 | 71 | 1017.7 |
| 20260906042035 | 85 | 140 | 5.0 | 10.0 | 0.00 | 0.00 | 0.00 | 71 | 1017.7 |
| 20260906041558 | 85 | 163 | 4.0 | 10.0 | 0.00 | 0.00 | 0.00 | 70 | 1017.8 |
| 20260906041034 | 85 | 149 | 4.0 | 12.0 | 0.00 | 0.00 | 0.00 | 70 | 1017.7 |
| 20260906040535 | 85 | 167 | 4.0 | 12.0 | 0.00 | 0.00 | 0.00 | 70 | 1017.7 |
| 20260906040055 | 85 | 159 | 3.0 | 11.0 | 0.00 | 0.00 | 0.00 | 69 | 1017.7 |
| 20260906035534 | 85 | 360 | 5.0 | 12.0 | 0.00 | 0.00 | 0.00 | 69 | 1017.7 |
| 20260906035034 | 85 | 360 | 5.0 | 12.0 | 0.00 | 0.00 | 0.00 | 69 | 1017.7 |
| 20260906034559 | 85 | 133 | 4.0 | 11.0 | 0.00 | 0.00 | 0.00 | 68 | 1017.6 |
| 20260906034034 | 85 | 148 | 4.0 | 12.0 | 0.00 | 0.00 | 0.00 | 68 | 1017.5 |
| 20260906033534 | 86 | 360 | 5.0 | 12.0 | 0.00 | 0.00 | 0.00 | 68 | 1017.4 |
| 20260906033056 | 86 | 169 | 4.0 | 13.0 | 0.00 | 0.00 | 0.00 | 67 | 1017.3 |
| 20260906032535 | 86 | 153 | 5.0 | 13.0 | 0.00 | 0.00 | 0.00 | 65 | 1017.2 |
| 20260906032035 | 86 | 127 | 5.0 | 14.0 | 0.00 | 0.00 | 0.00 | 65 | 1017.2 |
| 20260906031552 | 86 | 153 | 7.0 | 15.0 | 0.00 | 0.00 | 0.00 | 64 | 1017.1 |
| 20260906031035 | 86 | 151 | 6.0 | 15.0 | 0.00 | 0.00 | 0.00 | 64 | 1016.9 |
| 20260906030534 | 86 | 100 | 5.0 | 12.0 | 0.00 | 0.00 | 0.00 | 63 | 1016.9 |
| 20260906030053 | 86 | 149 | 4.0 | 10.0 | 0.00 | 0.00 | 0.00 | 63 | 1016.8 |
| 20260906025534 | 87 | 163 | 3.0 | 11.0 | 0.00 | 0.00 | 0.00 | 63 | 1016.7 |
| 20260906025036 | 87 | 135 | 3.0 | 12.0 | 0.00 | 0.00 | 0.00 | 63 | 1016.8 |
| 20260906024547 | 87 | 143 | 4.0 | 12.0 | 0.00 | 0.00 | 0.00 | 63 | 1016.4 |
| 20260906024035 | 87 | 136 | 4.0 | 12.0 | 0.00 | 0.00 | 0.00 | 63 | 1016.3 |
| 20260906023535 | 87 | 144 | 5.0 | 11.0 | 0.00 | 0.00 | 0.00 | 62 | 1016.1 |
| 20260906023055 | 88 | 360 | 2.0 | 9.0 | 0.00 | 0.00 | 0.00 | 61 | 1016.1 |
| 20260906022534 | 88 | 160 | 3.0 | 10.0 | 0.00 | 0.00 | 0.00 | 61 | 1016.0 |
| 20260906022035 | 88 | 360 | 4.0 | 10.0 | 0.00 | 0.00 | 0.00 | 60 | 1015.8 |
| 20260906021559 | 88 | 101 | 2.0 | 9.0 | 0.00 | 0.00 | 0.00 | 59 | 1015.7 |
| 20260906021034 | 89 | 360 | 3.0 | 9.0 | 0.00 | 0.00 | 0.00 | 59 | 1015.7 |
| 20260906020535 | 89 | 118 | 2.0 | 9.0 | 0.00 | 0.00 | 0.00 | 58 | 1015.7 |
| 20260906020049 | 89 | 100 | 4.0 | 11.0 | 0.00 | 0.00 | 0.00 | 57 | 1015.5 |
| 20260906015535 | 90 | 360 | 5.0 | 11.0 | 0.00 | 0.00 | 0.00 | 56 | 1015.5 |
| 20260906015035 | 90 | 171 | 4.0 | 14.0 | 0.00 | 0.00 | 0.00 | 55 | 1015.4 |
| 20260906014549 | 90 | 101 | 5.0 | 14.0 | 0.00 | 0.00 | 0.00 | 55 | 1015.4 |
| 20260906014034 | 91 | 119 | 5.0 | 13.0 | 0.00 | 0.00 | 0.00 | 54 | 1015.4 |
| 20260906013537 | 91 | 163 | 4.0 | 12.0 | 0.00 | 0.00 | 0.00 | 54 | 1015.4 |
| 20260906013054 | 91 | 115 | 5.0 | 15.0 | 0.00 | 0.00 | 0.00 | 54 | 1015.1 |
| 20260906012534 | 92 | 82 | 5.0 | 16.0 | 0.00 | 0.00 | 0.00 | 53 | 1015.0 |
| 20260906012034 | 92 | 115 | 5.0 | 16.0 | 0.00 | 0.00 | 0.00 | 52 | 1015.0 |
| 20260906011553 | 93 | 150 | 7.0 | 12.0 | 0.00 | 0.00 | 0.00 | 49 | 1014.9 |
| 20260906011035 | 93 | 360 | 2.0 | 8.0 | 0.00 | 0.00 | 0.00 | 47 | 1014.8 |
| 20260906010534 | 93 | 136 | 1.0 | 8.0 | 0.00 | 0.00 | 0.00 | 47 | 1014.7 |
| 20260906010128 | 94 | 360 | 1.0 | 8.0 | 0.00 | 0.00 | 0.00 | 46 | 1014.7 |
| 20260906005534 | 94 | 0 | 1.0 | 8.0 | 0.00 | 0.00 | 0.00 | 46 | 1014.7 |
| 20260906005038 | 94 | 136 | 3.0 | 8.0 | 0.00 | 0.00 | 0.00 | 46 | 1014.7 |
| 20260906004611 | 95 | 360 | 1.0 | 9.0 | 0.00 | 0.00 | 0.00 | 45 | 1014.6 |
| 20260906004035 | 95 | 0 | 2.0 | 9.0 | 0.00 | 0.00 | 0.00 | 45 | 1014.6 |
| 20260906003535 | 95 | 0 | 2.0 | 9.0 | 0.00 | 0.00 | 0.00 | 44 | 1014.6 |
| 20260906003052 | 96 | 77 | 2.0 | 9.0 | 0.00 | 0.00 | 0.00 | 44 | 1014.6 |
| 20260906002534 | 97 | 0 | 3.0 | 13.0 | 0.00 | 0.00 | 0.00 | 43 | 1014.6 |
| 20260906002035 | 97 | 134 | 4.0 | 13.0 | 0.00 | 0.00 | 0.00 | 42 | 1014.6 |
| 20260906001600 | 98 | 360 | 2.0 | 10.0 | 0.00 | 0.00 | 0.00 | 37 | 1014.6 |
| 20260906001035 | 98 | 178 | 1.0 | 5.0 | 0.00 | 0.00 | 0.00 | 33 | 1014.6 |
| 20260906000535 | 98 | 0 | 0.0 | 8.0 | 0.00 | 0.00 | 0.00 | 33 | 1014.6 |
| 20260906000046 | 98 | 0 | 2.0 | 8.0 | 0.00 | 0.00 | 0.00 | 33 | 1014.6 |
| 20260905235535 | 98 | 120 | 2.0 | 8.0 | 0.00 | 0.00 | 0.00 | 32 | 1014.4 |
| 20260905235035 | 98 | 111 | 1.0 | 7.0 | 0.00 | 0.00 | 0.00 | 34 | 1014.5 |
| 20260905234545 | 98 | 100 | 1.0 | 6.0 | 0.00 | 0.00 | 0.00 | 34 | 1014.3 |
| 20260905234034 | 98 | 137 | 1.0 | 6.0 | 0.00 | 0.00 | 0.00 | 35 | 1014.4 |
| 20260905233535 | 98 | 161 | 2.0 | 9.0 | 0.00 | 0.00 | 0.00 | 37 | 1014.4 |
| 20260905233053 | 99 | 360 | 2.0 | 10.0 | 0.00 | 0.00 | 0.00 | 37 | 1014.5 |
| 20260905232534 | 99 | 360 | 4.0 | 10.0 | 0.00 | 0.00 | 0.00 | 37 | 1014.4 |
| 20260905232034 | 99 | 180 | 2.0 | 8.0 | 0.00 | 0.00 | 0.00 | 38 | 1014.4 |
| 20260905231549 | 99 | 360 | 0.0 | 5.0 | 0.00 | 0.00 | 0.00 | 39 | 1014.5 |
| 20260905231033 | 99 | 0 | 0.0 | 10.0 | 0.00 | 0.00 | 0.00 | 38 | 1014.5 |
| 20260905230536 | 100 | 177 | 4.0 | 10.0 | 0.00 | 0.00 | 0.00 | 38 | 1014.4 |
| 20260905230044 | 100 | 74 | 1.0 | 8.0 | 0.00 | 0.00 | 0.00 | 37 | 1014.3 |
| 20260905225535 | 101 | 75 | 2.0 | 7.0 | 0.00 | 0.00 | 0.00 | 37 | 1014.4 |
| 20260905225034 | 100 | 169 | 0.0 | 7.0 | 0.00 | 0.00 | 0.00 | 36 | 1014.3 |
| 20260905224552 | 101 | 92 | 2.0 | 8.0 | 0.00 | 0.00 | 0.00 | 36 | 1014.3 |
| 20260905224034 | 101 | 360 | 2.0 | 10.0 | 0.00 | 0.00 | 0.00 | 35 | 1014.4 |
| 20260905223534 | 101 | 360 | 4.0 | 10.0 | 0.00 | 0.00 | 0.00 | 35 | 1014.5 |
| 20260905223055 | 101 | 360 | 0.0 | 7.0 | 0.00 | 0.00 | 0.00 | 34 | 1014.5 |
| 20260905222534 | 101 | 142 | 0.0 | 10.0 | 0.00 | 0.00 | 0.00 | 34 | 1014.5 |
| 20260905222034 | 101 | 147 | 2.0 | 10.0 | 0.00 | 0.00 | 0.00 | 34 | 1014.5 |
| 20260905221547 | 101 | 125 | 5.0 | 10.0 | 0.00 | 0.00 | 0.00 | 34 | 1014.6 |
| 20260905221035 | 101 | 139 | 2.0 | 9.0 | 0.00 | 0.00 | 0.00 | 34 | 1014.5 |
| 20260905220536 | 102 | 175 | 2.0 | 9.0 | 0.00 | 0.00 | 0.00 | 33 | 1014.5 |
| 20260905220058 | 102 | 78 | 3.0 | 9.0 | 0.00 | 0.00 | 0.00 | 33 | 1014.5 |
| 20260905215536 | 101 | 109 | 2.0 | 7.0 | 0.00 | 0.00 | 0.00 | 34 | 1014.6 |
| 20260905215036 | 102 | 313 | 0.0 | 12.0 | 0.00 | 0.00 | 0.00 | 34 | 1014.4 |
| 20260905214551 | 102 | 0 | 4.0 | 12.0 | 0.00 | 0.00 | 0.00 | 34 | 1014.5 |
| 20260905214034 | 102 | 172 | 6.0 | 11.0 | 0.00 | 0.00 | 0.00 | 34 | 1014.7 |
| 20260905213534 | 102 | 159 | 3.0 | 10.0 | 0.00 | 0.00 | 0.00 | 33 | 1014.7 |
| 20260905213049 | 103 | 69 | 2.0 | 10.0 | 0.00 | 0.00 | 0.00 | 33 | 1014.7 |
| 20260905212537 | 104 | 174 | 2.0 | 9.0 | 0.00 | 0.00 | 0.00 | 34 | 1014.8 |
| 20260905212034 | 103 | 0 | 1.0 | 9.0 | 0.00 | 0.00 | 0.00 | 34 | 1014.7 |
| 20260905211545 | 103 | 151 | 1.0 | 9.0 | 0.00 | 0.00 | 0.00 | 34 | 1014.9 |
| 20260905211035 | 103 | 35 | 3.0 | 9.0 | 0.00 | 0.00 | 0.00 | 34 | 1014.9 |
| 20260905210535 | 103 | 174 | 2.0 | 8.0 | 0.00 | 0.00 | 0.00 | 35 | 1014.9 |
| 20260905210112 | 103 | 103 | 2.0 | 10.0 | 0.00 | 0.00 | 0.00 | 35 | 1015.0 |
| 20260905205534 | 103 | 76 | 3.0 | 10.0 | 0.00 | 0.00 | 0.00 | 36 | 1015.1 |
| 20260905205035 | 103 | 144 | 3.0 | 10.0 | 0.00 | 0.00 | 0.00 | 37 | 1015.0 |
| 20260905204551 | 103 | 0 | 2.0 | 9.0 | 0.00 | 0.00 | 0.00 | 38 | 1015.2 |
| 20260905204034 | 103 | 154 | 3.0 | 9.0 | 0.00 | 0.00 | 0.00 | 37 | 1015.3 |
| 20260905203535 | 103 | 98 | 1.0 | 11.0 | 0.00 | 0.00 | 0.00 | 38 | 1015.4 |
| 20260905203047 | 103 | 94 | 3.0 | 12.0 | 0.00 | 0.00 | 0.00 | 38 | 1015.5 |
| 20260905202533 | 103 | 157 | 4.0 | 12.0 | 0.00 | 0.00 | 0.00 | 39 | 1015.7 |
| 20260905202035 | 102 | 0 | 3.0 | 9.0 | 0.00 | 0.00 | 0.00 | 38 | 1015.8 |
| 20260905201553 | 102 | 162 | 3.0 | 11.0 | 0.00 | 0.00 | 0.00 | 40 | 1015.9 |
| 20260905201034 | 102 | 360 | 5.0 | 11.0 | 0.00 | 0.00 | 0.00 | 40 | 1016.0 |
| 20260905200534 | 103 | 0 | 3.0 | 10.0 | 0.00 | 0.00 | 0.00 | 39 | 1016.1 |
| 20260905200114 | 104 | 360 | 2.0 | 10.0 | 0.00 | 0.00 | 0.00 | 38 | 1016.2 |
| 20260905195534 | 103 | 140 | 2.0 | 12.0 | 0.00 | 0.00 | 0.00 | 39 | 1016.1 |
| 20260905195035 | 103 | 120 | 5.0 | 12.0 | 0.00 | 0.00 | 0.00 | 39 | 1016.2 |